• In Netherlands
  • List of Countries
  • For 7 days
  • Water Temperature
  • Satellite Maps
  • Weather Map
  • Weather Widgets
  • user-avatar
    Login

    Hourly Weather Sveti Vlas

    Today, 28 May, Sunday

    Time Temperature Precipitation Wind Pressure Humidity
    00:00 +13°C° 0.1 mm 4 mps 756 mmHg 94%
    01:00 +13°C° 0.1 mm 4 mps 756 mmHg 94%
    02:00 +13°C° 0.1 mm 4 mps 757 mmHg 94%
    03:00 +13°C° 0.1 mm 5 mps 757 mmHg 94%
    04:00 +13°C° 0.1 mm 5 mps 757 mmHg 94%
    05:00 +13°C° 0.1 mm 5 mps 757 mmHg 94%
    06:00 +14°C° 0 mm 5 mps 757 mmHg 92%
    07:00 +14°C° 0 mm 5 mps 757 mmHg 90%
    08:00 +15°C° 0 mm 6 mps 758 mmHg 88%
    09:00 +16°C° 0.1 mm 6 mps 758 mmHg 85%
    10:00 +17°C° 0.1 mm 6 mps 758 mmHg 82%
    11:00 +19°C° 0.1 mm 6 mps 758 mmHg 78%
    12:00 +19°C° 0.2 mm 6 mps 759 mmHg 77%
    13:00 +19°C° 0.2 mm 6 mps 759 mmHg 77%
    14:00 +20°C° 0.2 mm 6 mps 759 mmHg 76%
    15:00 +20°C° 0.1 mm 6 mps 759 mmHg 76%
    16:00 +20°C° 0.1 mm 6 mps 759 mmHg 76%
    17:00 +20°C° 0.1 mm 6 mps 759 mmHg 76%
    18:00 +17°C° 0 mm 5 mps 759 mmHg 81%
    19:00 +15°C° 0 mm 5 mps 759 mmHg 86%
    20:00 +14°C° 0 mm 4 mps 759 mmHg 91%
    21:00 +13°C° 0 mm 4 mps 759 mmHg 91%
    22:00 +13°C° 0 mm 3 mps 759 mmHg 90%
    23:00 +12°C° 0 mm 3 mps 760 mmHg 90%

    Tomorrow, 29 May, Monday

    Time Temperature Precipitation Wind Pressure Humidity
    00:00 +12°C° 0 mm 3 mps 759 mmHg 89%
    01:00 +12°C° 0 mm 4 mps 759 mmHg 87%
    02:00 +11°C° 0 mm 4 mps 759 mmHg 86%
    03:00 +11°C° 0 mm 4 mps 759 mmHg 85%
    04:00 +10°C° 0 mm 5 mps 759 mmHg 84%
    05:00 +10°C° 0 mm 5 mps 758 mmHg 83%
    06:00 +13°C° 0 mm 5 mps 758 mmHg 79%
    07:00 +15°C° 0 mm 5 mps 759 mmHg 75%
    08:00 +17°C° 0 mm 5 mps 759 mmHg 71%
    09:00 +20°C° 0 mm 6 mps 759 mmHg 68%
    10:00 +21°C° 0 mm 6 mps 758 mmHg 66%
    11:00 +22°C° 0 mm 6 mps 758 mmHg 63%
    12:00 +22°C° 0 mm 6 mps 758 mmHg 63%
    13:00 +22°C° 0 mm 6 mps 758 mmHg 62%
    14:00 +22°C° 0 mm 5 mps 757 mmHg 62%
    15:00 +22°C° 0 mm 5 mps 757 mmHg 63%
    16:00 +21°C° 0 mm 5 mps 757 mmHg 65%
    17:00 +21°C° 0 mm 5 mps 757 mmHg 66%
    18:00 +19°C° 0 mm 4 mps 757 mmHg 74%
    19:00 +17°C° 0 mm 4 mps 757 mmHg 82%
    20:00 +13°C° 0 mm 3 mps 757 mmHg 89%
    21:00 +13°C° 0 mm 2 mps 757 mmHg 90%
    22:00 +12°C° 0 mm 2 mps 757 mmHg 91%
    23:00 +11°C° 0 mm 1 mps 757 mmHg 91%

    Day after tomorrow, 30 May, Tuesday

    Time Temperature Precipitation Wind Pressure Humidity
    00:00 +10°C° 0 mm 2 mps 757 mmHg 90%
    01:00 +10°C° 0 mm 2 mps 757 mmHg 90%
    02:00 +10°C° 0 mm 2 mps 756 mmHg 89%
    03:00 +10°C° 0 mm 2 mps 756 mmHg 88%
    04:00 +10°C° 0 mm 2 mps 756 mmHg 88%
    05:00 +10°C° 0 mm 2 mps 756 mmHg 87%
    06:00 +14°C° 0 mm 1 mps 756 mmHg 80%
    07:00 +16°C° 0 mm 1 mps 757 mmHg 72%
    08:00 +20°C° 0 mm 1 mps 757 mmHg 64%
    09:00 +22°C° 0 mm 1 mps 757 mmHg 60%
    10:00 +23°C° 0 mm 1 mps 757 mmHg 55%
    11:00 +24°C° 0 mm 1 mps 757 mmHg 51%
    12:00 +24°C° 0 mm 2 mps 757 mmHg 50%
    13:00 +25°C° 0 mm 2 mps 756 mmHg 49%
    14:00 +25°C° 0 mm 2 mps 756 mmHg 48%
    15:00 +25°C° 0 mm 2 mps 756 mmHg 51%
    16:00 +24°C° 0 mm 2 mps 756 mmHg 54%
    17:00 +24°C° 0 mm 2 mps 756 mmHg 57%
    18:00 +20°C° 0 mm 2 mps 756 mmHg 66%
    19:00 +17°C° 0 mm 2 mps 756 mmHg 75%
    20:00 +14°C° 0 mm 2 mps 756 mmHg 83%
    21:00 +14°C° 0 mm 1 mps 756 mmHg 84%
    22:00 +13°C° 0 mm 1 mps 756 mmHg 84%
    23:00 +12°C° 0 mm 1 mps 756 mmHg 84%

    31 May, Wednesday

    Time Temperature Precipitation Wind Pressure Humidity
    00:00 +12°C° 0 mm 1 mps 756 mmHg 83%
    01:00 +12°C° 0 mm 1 mps 756 mmHg 83%
    02:00 +12°C° 0 mm 1 mps 756 mmHg 82%
    03:00 +12°C° 0 mm 1 mps 756 mmHg 82%
    04:00 +12°C° 0 mm 1 mps 756 mmHg 83%
    05:00 +12°C° 0 mm 1 mps 756 mmHg 83%
    06:00 +15°C° 0 mm 1 mps 756 mmHg 76%
    07:00 +19°C° 0 mm 1 mps 756 mmHg 69%
    08:00 +22°C° 0 mm 1 mps 756 mmHg 62%
    09:00 +23°C° 0 mm 2 mps 756 mmHg 59%
    10:00 +25°C° 0 mm 2 mps 756 mmHg 55%
    11:00 +26°C° 0 mm 2 mps 756 mmHg 51%
    12:00 +26°C° 0 mm 2 mps 756 mmHg 49%
    13:00 +27°C° 0 mm 2 mps 756 mmHg 48%
    14:00 +27°C° 0 mm 2 mps 755 mmHg 46%
    15:00 +27°C° 0 mm 3 mps 755 mmHg 48%
    16:00 +27°C° 0 mm 3 mps 755 mmHg 51%
    17:00 +26°C° 0 mm 3 mps 754 mmHg 53%
    18:00 +24°C° 0 mm 3 mps 754 mmHg 62%
    19:00 +20°C° 0 mm 3 mps 754 mmHg 71%
    20:00 +18°C° 0 mm 3 mps 754 mmHg 80%
    21:00 +17°C° 0 mm 3 mps 755 mmHg 81%
    22:00 +16°C° 0 mm 3 mps 755 mmHg 82%
    23:00 +16°C° 0 mm 3 mps 755 mmHg 82%

    1 June, Thursday

    Time Temperature Precipitation Wind Pressure Humidity
    00:00 +16°C° 0 mm 3 mps 754 mmHg 81%
    01:00 +16°C° 0 mm 3 mps 754 mmHg 79%
    02:00 +16°C° 0 mm 3 mps 754 mmHg 78%
    03:00 +16°C° 0 mm 3 mps 754 mmHg 78%
    04:00 +16°C° 0 mm 3 mps 754 mmHg 78%
    05:00 +16°C° 0 mm 2 mps 754 mmHg 78%
    06:00 +18°C° 0 mm 2 mps 754 mmHg 73%
    07:00 +21°C° 0 mm 3 mps 754 mmHg 67%
    08:00 +24°C° 0 mm 3 mps 754 mmHg 62%
    09:00 +26°C° 0 mm 3 mps 754 mmHg 58%
    10:00 +27°C° 0 mm 3 mps 754 mmHg 53%
    11:00 +28°C° 0 mm 3 mps 754 mmHg 49%
    12:00 +29°C° 0 mm 3 mps 753 mmHg 48%
    13:00 +29°C° 0 mm 3 mps 753 mmHg 47%
    14:00 +30°C° 0 mm 3 mps 753 mmHg 46%
    15:00 +29°C° 0.2 mm 3 mps 752 mmHg 49%
    16:00 +29°C° 0.2 mm 3 mps 752 mmHg 51%
    17:00 +29°C° 0.2 mm 3 mps 752 mmHg 54%
    18:00 +27°C° 0.3 mm 3 mps 752 mmHg 62%
    19:00 +24°C° 0.3 mm 3 mps 752 mmHg 70%
    20:00 +21°C° 0.3 mm 3 mps 752 mmHg 79%
    21:00 +21°C° 0.4 mm 3 mps 752 mmHg 80%
    22:00 +20°C° 0.4 mm 3 mps 752 mmHg 80%
    23:00 +20°C° 0.4 mm 3 mps 753 mmHg 81%

    2 June, Friday

    Time Temperature Precipitation Wind Pressure Humidity
    00:00 +20°C° 0.2 mm 3 mps 752 mmHg 82%
    01:00 +20°C° 0.2 mm 3 mps 752 mmHg 82%
    02:00 +19°C° 0.2 mm 3 mps 752 mmHg 83%
    03:00 +19°C° 0.5 mm 3 mps 753 mmHg 84%
    04:00 +19°C° 0.5 mm 3 mps 753 mmHg 84%
    05:00 +19°C° 0.5 mm 3 mps 753 mmHg 85%
    06:00 +20°C° 0.4 mm 4 mps 753 mmHg 84%
    07:00 +21°C° 0.4 mm 5 mps 754 mmHg 82%
    08:00 +23°C° 0.4 mm 5 mps 754 mmHg 81%
    09:00 +23°C° 0.3 mm 5 mps 754 mmHg 78%
    10:00 +23°C° 0.3 mm 6 mps 755 mmHg 75%
    11:00 +23°C° 0.3 mm 6 mps 755 mmHg 72%
    12:00 +23°C° 0.2 mm 6 mps 755 mmHg 70%
    13:00 +23°C° 0.2 mm 6 mps 755 mmHg 68%
    14:00 +23°C° 0.2 mm 6 mps 755 mmHg 67%
    15:00 +23°C° 0.1 mm 5 mps 755 mmHg 69%
    16:00 +22°C° 0.1 mm 5 mps 755 mmHg 71%
    17:00 +21°C° 0.1 mm 4 mps 755 mmHg 73%
    18:00 +20°C° 0 mm 4 mps 755 mmHg 77%
    19:00 +18°C° 0 mm 3 mps 756 mmHg 81%
    20:00 +17°C° 0 mm 2 mps 756 mmHg 86%
    21:00 +17°C° 0 mm 2 mps 756 mmHg 87%
    22:00 +16°C° 0 mm 1 mps 756 mmHg 89%
    23:00 +16°C° 0 mm 1 mps 756 mmHg 91%
    Show more